Location: Eurasberg
(48.3353°N, 11.0839°E)
Time: 23:44:30
(UTC+00:00)

Cosmos 1269 Rocket - Visible Passes

Search period start: 18 April 2026 00:00
Search period end: 28 April 2026 00:00
Orbit: 769 x 774 km, 74.1° (Epoch: 18 April)

Date Brightness Start Highest point End Pass type
(mag) Time Alt. Az. Time Alt. Az. Time Alt. Az.
18 Apr 5.4 20:03:59 10° N 20:08:24 26° NE 20:10:24 21° E visible
18 Apr 4.4 21:45:44 10° NNW 21:50:44 55° W 21:50:44 55° W visible
19 Apr 5.8 19:28:24 10° N 19:32:02 18° NE 19:35:10 12° E visible
19 Apr 3.8 21:09:36 10° NNW 21:14:55 87° WSW 21:15:31 71° SSE visible
19 Apr 6.3 22:53:52 10° WNW 22:55:51 13° W 22:55:51 13° W visible
20 Apr 6.1 18:53:08 10° NNE 18:55:33 13° NE 18:57:58 10° ENE visible
20 Apr 4.1 20:33:37 10° NNW 20:38:52 61° ENE 20:40:19 44° ESE visible
20 Apr 5.8 22:16:39 10° NW 22:20:32 21° W 22:20:39 21° W visible
21 Apr 4.7 19:57:44 10° N 20:02:42 40° ENE 20:05:08 25° ESE visible
21 Apr 5.1 21:40:04 10° NW 21:44:45 33° WSW 21:45:29 32° WSW visible
22 Apr 5.3 19:21:58 10° N 19:26:27 27° NE 19:29:59 14° ESE visible
22 Apr 4.5 21:03:46 10° NNW 21:08:54 52° WSW 21:10:20 40° SSW visible
23 Apr 5.7 18:46:21 10° N 18:50:06 19° NE 18:53:50 10° E visible
23 Apr 4.0 20:27:38 10° NNW 20:32:56 83° WSW 20:35:13 35° SSE visible
23 Apr 6.4 22:12:08 10° WNW 22:14:11 12° W 22:15:34 11° WSW visible
24 Apr 4.1 19:51:38 10° NNW 19:56:54 64° ENE 20:00:08 23° SE visible
24 Apr 5.9 21:34:45 10° NW 21:38:31 20° W 21:40:29 16° SW visible
25 Apr 4.6 19:15:44 10° NNW 19:20:45 42° ENE 19:25:05 13° SE visible
25 Apr 5.4 20:58:08 10° NW 21:02:45 31° W 21:05:26 20° SSW visible
26 Apr 4.7 20:21:48 10° NNW 20:26:54 50° WSW 20:30:26 19° S visible
27 Apr 4.1 19:45:39 10° NNW 19:50:57 79° WSW 19:55:27 14° SSE visible
27 Apr 6.5 21:30:26 10° WNW 21:32:10 12° W 21:33:52 10° WSW visible
